Flag for U.S.A. Weather past 2 weeks in Fort Wayne, Indiana, U.S.A.

Now
79 °F

Partly sunny.


Feels Like: 82 °F
Forecast: 67 / 82 °F
Wind: 14 mph from Southwest

Location: Fort Wayne International Airport

Current Time: Aug 30, 2014 at 6:19:10 PM

Latest Report: Aug 30, 2014 at 5:54 PM


Visibility: 10 mi

Pressure: 29.91 "Hg

Humidity: 74%

Dew point: 70 °F

Location of Fort WayneLocation

Historic Weather in Fort Wayne — Graph

°F

Fort Wayne temperature yesterday

Maximum temperature yesterday: 81 °F (at 4:54 PM)
Minimum temperature yesterday: 61 °F (at 4:54 AM)
Average temperature yesterday: 71 °F

Past Weeks' High & Low Weather Summary

 TemperatureHumidityPressure
High87 °F (Aug 25, 2:54 PM)100% (Aug 17, 8:54 AM)30.14 "Hg (Aug 17, 8:54 AM)
Low48 °F (Aug 16, 5:54 AM)34% (Aug 15, 4:54 PM)29.76 "Hg (Aug 19, 3:54 PM)
Average72 °F81%29.98 "Hg
* Reported Aug 15 4:54 PM — Aug 30 4:54 PM, Fort Wayne, Weather by CustomWeather, © 2014

Note: Actual official high and low records may vary slightly from our data, if they occured in-between our weather recording intervals... More about our weather records

Advertising

Fort Wayne weather history for previous 24 hours

 ConditionsComfort  
Time TempWeatherWind HumidityBarometerVisibility
4:54 PM
Aug 30
80 °FBroken clouds.16 mph69%29.91 "Hg10 mi
3:54 PM81 °FBroken clouds.17 mph69%29.93 "Hg10 mi
2:54 PM81 °FBroken clouds.21 mph67%29.94 "Hg10 mi
1:54 PM81 °FBroken clouds.16 mph67%29.95 "Hg10 mi
12:54 PM77 °FBroken clouds.15 mph74%29.97 "Hg10 mi
11:54 AM78 °FPartly sunny.14 mph74%29.97 "Hg10 mi
10:54 AM75 °FPartly sunny.15 mph76%29.97 "Hg10 mi
9:54 AM74 °FMostly cloudy.15 mph76%29.96 "Hg10 mi
8:54 AM72 °FMostly cloudy.10 mph76%29.96 "Hg10 mi
7:54 AM71 °FPartly cloudy.12 mph78%29.96 "Hg10 mi
6:54 AM70 °FPassing clouds.12 mph81%29.96 "Hg10 mi
5:54 AM70 °FClear.10 mph81%29.96 "Hg10 mi
4:54 AM70 °FPassing clouds.9 mph84%29.95 "Hg10 mi
3:54 AM69 °FPassing clouds.8 mph90%29.96 "Hg10 mi
2:54 AM71 °FPassing clouds.9 mph84%29.97 "Hg10 mi
1:54 AM72 °FPassing clouds.12 mph81%29.98 "Hg10 mi
12:54 AM72 °FPassing clouds.8 mph81%29.99 "Hg10 mi
11:54 PM
Aug 29
72 °FPassing clouds.7 mph81%29.99 "Hg10 mi
10:54 PM73 °FPassing clouds.8 mph81%29.99 "Hg10 mi
9:54 PM74 °FPartly cloudy.9 mph79%29.98 "Hg10 mi
8:54 PM75 °FScattered clouds.8 mph76%29.98 "Hg10 mi
7:54 PM77 °FScattered clouds.8 mph74%29.98 "Hg10 mi
6:54 PM80 °FScattered clouds.7 mph69%29.98 "Hg10 mi
Weather by CustomWeather, © 2014

See weather overviewHow to use our weather pages